TimeCEST,TemperatureF,Dew PointF,Humidity,Sea Level PressureIn,VisibilityMPH,Wind Direction,Wind SpeedMPH,Gust SpeedMPH,PrecipitationIn,Events,Conditions,WindDirDegrees,DateUTC
12:00 AM,77.0,71.6,83,29.98,6.2,SW,10.4,-,N/A,,Partly Cloudy,230,2013-08-12 22:00:00
12:30 AM,78.8,71.6,78,30.01,6.2,SW,12.7,-,N/A,,Partly Cloudy,230,2013-08-12 22:30:00
1:00 AM,78.8,69.8,74,30.01,6.2,WSW,12.7,-,N/A,,Partly Cloudy,240,2013-08-12 23:00:00
1:30 AM,78.8,66.2,65,30.01,6.2,WSW,9.2,-,N/A,,Partly Cloudy,240,2013-08-12 23:30:00
2:00 AM,78,67,62,30.00,19,Calm,Calm,,,,Scattered Clouds,,2013-08-13 00:00:00
2:00 AM,78.8,66.2,65,30.01,6.2,West,3.5,-,N/A,,Partly Cloudy,270,2013-08-13 00:00:00
2:30 AM,78.8,64.4,61,29.98,6.2,SSW,3.5,-,N/A,,Partly Cloudy,200,2013-08-13 00:30:00
3:00 AM,78.8,68.0,69,29.98,6.2,SSW,5.8,-,N/A,,Partly Cloudy,210,2013-08-13 01:00:00
3:30 AM,77.0,68.0,74,29.98,6.2,SW,8.1,-,N/A,,Partly Cloudy,230,2013-08-13 01:30:00
4:00 AM,78.8,68.0,69,29.98,6.2,SSW,11.5,-,N/A,,Partly Cloudy,210,2013-08-13 02:00:00
4:30 AM,77.0,66.2,69,29.98,6.2,WSW,11.5,-,N/A,,Partly Cloudy,240,2013-08-13 02:30:00
5:00 AM,77.0,68.0,74,29.98,6.2,WSW,9.2,-,N/A,,Partly Cloudy,250,2013-08-13 03:00:00
5:30 AM,77.0,66.2,69,29.98,6.2,West,8.1,-,N/A,,Partly Cloudy,260,2013-08-13 03:30:00
6:00 AM,77.0,60.8,57,29.98,6.2,WNW,4.6,-,N/A,,Partly Cloudy,300,2013-08-13 04:00:00
6:30 AM,75.2,60.8,61,29.98,6.2,NNW,4.6,-,N/A,,Partly Cloudy,330,2013-08-13 04:30:00
7:00 AM,77.0,60.8,57,29.98,6.2,NE,4.6,-,N/A,,Partly Cloudy,50,2013-08-13 05:00:00
7:30 AM,75.2,60.8,61,29.98,6.2,Variable,2.3,-,N/A,,Partly Cloudy,0,2013-08-13 05:30:00
8:00 AM,76,62,53,29.99,19,North,9.2,,,,Scattered Clouds,350,2013-08-13 06:00:00
8:00 AM,77.0,60.8,57,29.98,6.2,NW,3.5,-,N/A,,Partly Cloudy,320,2013-08-13 06:00:00
8:30 AM,77.0,60.8,57,29.98,6.2,NW,6.9,-,N/A,,Partly Cloudy,320,2013-08-13 06:30:00
9:00 AM,77.0,60.8,57,30.01,6.2,NNW,5.8,-,N/A,,Partly Cloudy,330,2013-08-13 07:00:00
9:30 AM,80.6,59.0,48,30.01,6.2,NW,4.6,-,N/A,,Partly Cloudy,310,2013-08-13 07:30:00
10:00 AM,82.4,60.8,48,30.01,6.2,WSW,1.2,-,N/A,,Partly Cloudy,250,2013-08-13 08:00:00
10:30 AM,86.0,60.8,43,30.01,6.2,NE,2.3,-,N/A,,Partly Cloudy,40,2013-08-13 08:30:00
11:00 AM,84.2,64.4,51,30.04,6.2,East,6.9,-,N/A,,Partly Cloudy,80,2013-08-13 09:00:00
11:30 AM,86.0,69.8,58,30.04,6.2,East,6.9,-,N/A,,Partly Cloudy,90,2013-08-13 09:30:00
12:00 PM,84.2,69.8,62,30.04,6.2,ESE,6.9,-,N/A,,Partly Cloudy,110,2013-08-13 10:00:00
12:30 PM,86.0,64.4,48,30.04,6.2,East,6.9,-,N/A,,Partly Cloudy,100,2013-08-13 10:30:00
1:00 PM,86.0,64.4,48,30.04,6.2,ESE,6.9,-,N/A,,Partly Cloudy,120,2013-08-13 11:00:00
1:30 PM,86.0,64.4,48,30.04,6.2,ESE,6.9,-,N/A,,Partly Cloudy,120,2013-08-13 11:30:00
2:00 PM,87,66,41,30.05,17,South,5.8,,,,Scattered Clouds,170,2013-08-13 12:00:00
2:00 PM,86.0,64.4,48,30.04,6.2,SSE,5.8,-,N/A,,Partly Cloudy,160,2013-08-13 12:00:00
2:30 PM,86.0,62.6,45,30.04,6.2,South,5.8,-,N/A,,Partly Cloudy,170,2013-08-13 12:30:00
3:00 PM,86.0,64.4,48,30.04,6.2,South,5.8,-,N/A,,Partly Cloudy,180,2013-08-13 13:00:00
3:30 PM,86.0,68.0,55,30.04,6.2,SSE,6.9,-,N/A,,Partly Cloudy,160,2013-08-13 13:30:00
4:00 PM,86.0,66.2,51,30.04,6.2,South,6.9,-,N/A,,Partly Cloudy,170,2013-08-13 14:00:00
4:30 PM,84.2,66.2,55,30.01,6.2,South,6.9,-,N/A,,Partly Cloudy,180,2013-08-13 14:30:00
5:00 PM,84.2,69.8,62,30.04,6.2,South,5.8,-,N/A,,Partly Cloudy,170,2013-08-13 15:00:00
5:30 PM,84.2,71.6,66,30.01,6.2,South,6.9,-,N/A,,Partly Cloudy,170,2013-08-13 15:30:00
6:00 PM,84.2,71.6,66,30.04,6.2,SE,5.8,-,N/A,,Partly Cloudy,140,2013-08-13 16:00:00
6:30 PM,84.2,71.6,66,30.04,6.2,SE,5.8,-,N/A,,Partly Cloudy,130,2013-08-13 16:30:00
7:00 PM,82.4,71.6,70,30.04,6.2,ESE,4.6,-,N/A,,Partly Cloudy,120,2013-08-13 17:00:00
7:30 PM,82.4,73.4,74,30.04,6.2,East,8.1,-,N/A,,Scattered Clouds,90,2013-08-13 17:30:00
8:00 PM,81,74,74,30.04,19,SE,4.6,,,,Scattered Clouds,130,2013-08-13 18:00:00
8:00 PM,80.6,71.6,74,30.04,6.2,East,4.6,-,N/A,,Scattered Clouds,100,2013-08-13 18:00:00
8:30 PM,82.4,69.8,66,30.04,6.2,SE,2.3,-,N/A,,Partly Cloudy,130,2013-08-13 18:30:00
9:00 PM,82.4,68.0,62,30.04,6.2,Variable,2.3,-,N/A,,Partly Cloudy,0,2013-08-13 19:00:00
9:30 PM,80.6,68.0,65,30.04,6.2,SE,2.3,-,N/A,,Partly Cloudy,130,2013-08-13 19:30:00
10:00 PM,80.6,69.8,70,30.04,6.2,West,2.3,-,N/A,,Partly Cloudy,270,2013-08-13 20:00:00
10:30 PM,80.6,66.2,61,30.04,6.2,NW,11.5,-,N/A,,Partly Cloudy,310,2013-08-13 20:30:00
11:00 PM,80.6,64.4,58,30.04,6.2,WNW,5.8,-,N/A,,Partly Cloudy,300,2013-08-13 21:00:00
11:30 PM,80.6,64.4,58,30.04,6.2,NW,6.9,-,N/A,,Partly Cloudy,320,2013-08-13 21:30:00